Location: B?ezina
(49.8085°N, 13.6013°E)
Time: 05:32:28
(UTC+00:00)

Cosmos 1743 Rocket - Pass Details

Date: 19 May 2025
Orbit: 599 x 626 km, 82.6° (Epoch: 14 June)

Event Time Altitude Azimuth Distance (km) Brightness Sun altitude
Rises 23:20:26 0° 343° (NNW) 2,923 8.2 -20.1°
Reaches altitude 10° 23:22:48 10° 335° (NNW) 2,009 7.0 -20.1°
Maximum altitude 23:26:52 36° 269° (W) 991 4.5 -20.0°
Enters shadow 23:27:48 32° 242° (WSW) 1,066 4.4 -20.0°
